AZU2499 SBPS-SBKP

Flight info

Callsign AZU2499
Flight time 1h 38m
Altitude 34000
Route EDRAG DCT POSMU DCT MIMIP UZ30 ENTIT
Aircraft A320/M-SDE3FGHIRWY/LB1

Departure

Time 2026-05-08 00:39
Airport Porto Seguro International Airport (SBPS)

Arrival

Time 2026-05-08 02:18
Airport Viracopos International Airport (SBKP)
Time Latitude Longitude Altitude Speed Heading
2026-05-08 00:05 -16.44077 -39.08165 160 ft 0 kts 165°
2026-05-08 00:31 -16.44068 -39.08168 160 ft 3 kts 170°
2026-05-08 00:31 -16.44048 -39.08169 81 ft 3 kts 196°
2026-05-08 00:31 -16.44032 -39.08160 160 ft 3 kts 240°
2026-05-08 00:31 -16.44028 -39.08153 135 ft 0 kts 254°
2026-05-08 00:35 -16.44029 -39.08155 160 ft 2 kts 254°
2026-05-08 00:35 -16.44039 -39.08193 160 ft 8 kts 254°
2026-05-08 00:35 -16.44052 -39.08242 160 ft 6 kts 254°
2026-05-08 00:36 -16.44048 -39.08279 160 ft 4 kts 307°
2026-05-08 00:36 -16.44027 -39.08292 160 ft 3 kts 338°
2026-05-08 00:36 -16.43985 -39.08306 159 ft 10 kts 344°
2026-05-08 00:36 -16.43928 -39.08362 158 ft 16 kts 266°
2026-05-08 00:37 -16.43960 -39.08492 159 ft 21 kts 255°
2026-05-08 00:37 -16.44003 -39.08652 159 ft 24 kts 255°
2026-05-08 00:37 -16.44017 -39.08768 159 ft 13 kts 291°
2026-05-08 00:38 -16.44037 -39.08772 159 ft 0 kts 71°
2026-05-08 00:38 -16.43983 -39.08583 159 ft 68 kts 74°
2026-05-08 00:39 -16.43794 -39.07874 161 ft 132 kts 74°
2026-05-08 00:39 -16.43510 -39.06828 517 ft 152 kts 74°
2026-05-08 00:39 -16.43215 -39.05751 1009 ft 163 kts 74°
2026-05-08 00:39 -16.42879 -39.04539 1216 ft 189 kts 74°
2026-05-08 00:40 -16.42500 -39.03149 1500 ft 211 kts 74°
2026-05-08 00:40 -16.42078 -39.01589 1788 ft 236 kts 74°
2026-05-08 00:40 -16.41653 -38.99851 2191 ft 259 kts 83°
2026-05-08 00:40 -16.41834 -38.97961 2880 ft 268 kts 110°
2026-05-08 00:41 -16.42764 -38.96281 3683 ft 271 kts 135°
2026-05-08 00:41 -16.44285 -38.95155 4488 ft 268 kts 161°
2026-05-08 00:41 -16.46093 -38.94815 5363 ft 265 kts 185°
2026-05-08 00:41 -16.47868 -38.95278 6211 ft 266 kts 207°
2026-05-08 00:42 -16.49301 -38.96464 6995 ft 272 kts 230°
2026-05-08 00:42 -16.50293 -38.98178 7725 ft 280 kts 239°
2026-05-08 00:42 -16.51227 -38.99981 8433 ft 286 kts 239°
2026-05-08 00:42 -16.52180 -39.01828 9117 ft 293 kts 239°
2026-05-08 00:43 -16.53156 -39.03717 9780 ft 299 kts 239°
2026-05-08 00:43 -16.54155 -39.05650 10367 ft 310 kts 240°
2026-05-08 00:43 -16.55220 -39.07699 10557 ft 333 kts 240°
2026-05-08 00:43 -16.56363 -39.09896 10713 ft 356 kts 240°
2026-05-08 00:44 -16.57565 -39.12209 11127 ft 368 kts 240°
2026-05-08 00:44 -16.58776 -39.14538 11711 ft 373 kts 240°
2026-05-08 00:44 -16.60015 -39.16926 12370 ft 376 kts 240°
2026-05-08 00:44 -16.61262 -39.19336 13016 ft 379 kts 240°
2026-05-08 00:45 -16.62518 -39.21759 13654 ft 382 kts 240°
2026-05-08 00:45 -16.63790 -39.24204 14269 ft 385 kts 240°
2026-05-08 00:45 -16.65073 -39.26668 14853 ft 388 kts 240°
2026-05-08 00:45 -16.66359 -39.29149 15447 ft 391 kts 240°
2026-05-08 00:46 -16.67639 -39.31619 16002 ft 394 kts 240°
2026-05-08 00:46 -16.68946 -39.34135 16543 ft 396 kts 240°
2026-05-08 00:46 -16.70265 -39.36676 17072 ft 399 kts 240°
2026-05-08 00:46 -16.71591 -39.39230 17597 ft 402 kts 240°
2026-05-08 00:47 -16.72923 -39.41805 18112 ft 404 kts 240°
2026-05-08 00:47 -16.74263 -39.44397 18595 ft 407 kts 240°
2026-05-08 00:47 -16.75611 -39.47004 19088 ft 409 kts 240°
2026-05-08 00:47 -16.76963 -39.49623 19569 ft 411 kts 240°
2026-05-08 00:48 -16.78324 -39.52259 20046 ft 413 kts 240°
2026-05-08 00:48 -16.79676 -39.54870 20497 ft 415 kts 240°
2026-05-08 00:48 -16.81053 -39.57530 20941 ft 417 kts 240°
2026-05-08 00:48 -16.82430 -39.60200 21373 ft 420 kts 241°
2026-05-08 00:49 -16.83817 -39.62890 21748 ft 422 kts 241°
2026-05-08 00:49 -16.85214 -39.65597 22147 ft 425 kts 241°
2026-05-08 00:49 -16.86623 -39.68318 22543 ft 427 kts 241°
2026-05-08 00:49 -16.88033 -39.71047 22942 ft 428 kts 241°
2026-05-08 00:50 -16.89431 -39.73759 23309 ft 431 kts 241°
2026-05-08 00:50 -16.90852 -39.76519 23679 ft 433 kts 241°
2026-05-08 00:50 -16.92281 -39.79300 24021 ft 436 kts 242°
2026-05-08 00:50 -16.93716 -39.82095 24345 ft 438 kts 242°
2026-05-08 00:51 -16.95160 -39.84905 24672 ft 440 kts 242°
2026-05-08 00:51 -16.96614 -39.87729 25001 ft 442 kts 241°
2026-05-08 00:51 -16.98127 -39.90524 25317 ft 444 kts 236°
2026-05-08 00:51 -16.99938 -39.93142 25620 ft 445 kts 233°
2026-05-08 00:52 -17.01765 -39.95704 25978 ft 445 kts 232°
2026-05-08 00:52 -17.03610 -39.98289 26317 ft 446 kts 232°
2026-05-08 00:52 -17.05470 -40.00897 26600 ft 448 kts 232°
2026-05-08 00:52 -17.07333 -40.03513 26881 ft 450 kts 232°
2026-05-08 00:53 -17.09201 -40.06138 27176 ft 451 kts 232°
2026-05-08 00:53 -17.11070 -40.08767 27449 ft 452 kts 232°
2026-05-08 00:53 -17.12946 -40.11413 27699 ft 454 kts 232°
2026-05-08 00:53 -17.14828 -40.14071 27966 ft 455 kts 233°
2026-05-08 00:54 -17.16712 -40.16730 28205 ft 456 kts 233°
2026-05-08 00:54 -17.18605 -40.19401 28462 ft 457 kts 233°
2026-05-08 00:54 -17.20477 -40.22044 28715 ft 458 kts 233°
2026-05-08 00:54 -17.22378 -40.24726 28966 ft 460 kts 233°
2026-05-08 00:55 -17.24286 -40.27415 29173 ft 461 kts 233°
2026-05-08 00:55 -17.26199 -40.30115 29387 ft 463 kts 233°
2026-05-08 00:55 -17.28119 -40.32827 29606 ft 464 kts 233°
2026-05-08 00:55 -17.30039 -40.35537 29942 ft 462 kts 233°
2026-05-08 00:56 -17.31953 -40.38238 30268 ft 461 kts 233°
2026-05-08 00:56 -17.33858 -40.40931 30577 ft 460 kts 233°
2026-05-08 00:56 -17.35757 -40.43620 30897 ft 459 kts 233°
2026-05-08 00:56 -17.37655 -40.46308 31196 ft 458 kts 233°
2026-05-08 00:57 -17.39523 -40.48951 31474 ft 458 kts 233°
2026-05-08 00:57 -17.41413 -40.51629 31761 ft 457 kts 233°
2026-05-08 00:57 -17.43297 -40.54304 32043 ft 456 kts 233°
2026-05-08 00:57 -17.45180 -40.56972 32338 ft 455 kts 233°
2026-05-08 00:58 -17.47057 -40.59632 32633 ft 454 kts 233°
2026-05-08 00:58 -17.48930 -40.62292 32916 ft 453 kts 233°
2026-05-08 00:58 -17.50799 -40.64947 33208 ft 452 kts 233°
2026-05-08 00:58 -17.52663 -40.67595 33502 ft 451 kts 232°
2026-05-08 00:59 -17.54526 -40.70241 33781 ft 450 kts 232°
2026-05-08 00:59 -17.56357 -40.72841 34018 ft 450 kts 232°
2026-05-08 00:59 -17.58212 -40.75476 34079 ft 450 kts 232°
2026-05-08 01:00 -17.61923 -40.80759 34085 ft 450 kts 232°
2026-05-08 01:00 -17.65631 -40.86039 34085 ft 450 kts 232°
2026-05-08 01:01 -17.69343 -40.91315 34086 ft 449 kts 232°
2026-05-08 01:01 -17.73025 -40.96558 34081 ft 449 kts 232°
2026-05-08 01:02 -17.76724 -41.01832 34084 ft 449 kts 231°
2026-05-08 01:02 -17.80411 -41.07106 34097 ft 447 kts 231°
2026-05-08 01:03 -17.84088 -41.12360 34098 ft 446 kts 231°
2026-05-08 01:03 -17.87729 -41.17578 34094 ft 446 kts 231°
2026-05-08 01:04 -17.91399 -41.22819 34093 ft 445 kts 231°
2026-05-08 01:04 -17.95063 -41.28064 34086 ft 445 kts 231°
2026-05-08 01:05 -17.98729 -41.33326 34079 ft 446 kts 231°
2026-05-08 01:05 -18.02376 -41.38557 34083 ft 447 kts 231°
2026-05-08 01:06 -18.06045 -41.43831 34088 ft 447 kts 231°
2026-05-08 01:06 -18.09718 -41.49105 34088 ft 447 kts 231°
2026-05-08 01:07 -18.13383 -41.54371 34087 ft 446 kts 231°
2026-05-08 01:07 -18.17018 -41.59604 34086 ft 446 kts 231°
2026-05-08 01:08 -18.20677 -41.64875 34080 ft 446 kts 231°
2026-05-08 01:08 -18.24333 -41.70146 34081 ft 446 kts 231°
2026-05-08 01:09 -18.27989 -41.75412 34086 ft 445 kts 231°
2026-05-08 01:09 -18.31607 -41.80645 34085 ft 445 kts 231°
2026-05-08 01:10 -18.35246 -41.85910 34087 ft 445 kts 231°
2026-05-08 01:10 -18.38886 -41.91168 34082 ft 444 kts 231°
2026-05-08 01:11 -18.42524 -41.96436 34080 ft 445 kts 231°
2026-05-08 01:11 -18.46164 -42.01707 34080 ft 445 kts 231°
2026-05-08 01:12 -18.49776 -42.06939 34096 ft 444 kts 230°
2026-05-08 01:12 -18.53369 -42.12164 34109 ft 434 kts 229°
2026-05-08 01:13 -18.56892 -42.17288 34111 ft 431 kts 229°
2026-05-08 01:13 -18.60422 -42.22402 34111 ft 432 kts 229°
2026-05-08 01:14 -18.63922 -42.27490 34111 ft 432 kts 229°
2026-05-08 01:14 -18.67444 -42.32629 34109 ft 433 kts 229°
2026-05-08 01:15 -18.70979 -42.37773 34108 ft 433 kts 229°
2026-05-08 01:15 -18.74503 -42.42926 34108 ft 434 kts 231°
2026-05-08 01:16 -18.77085 -42.48759 34108 ft 445 kts 245°
2026-05-08 01:16 -18.79074 -42.54897 34103 ft 445 kts 245°
2026-05-08 01:17 -18.81085 -42.61082 34104 ft 446 kts 245°
2026-05-08 01:17 -18.83095 -42.67274 34109 ft 446 kts 245°
2026-05-08 01:18 -18.85103 -42.73466 34110 ft 446 kts 245°
2026-05-08 01:18 -18.87113 -42.79670 34112 ft 446 kts 245°
2026-05-08 01:19 -18.89110 -42.85826 34115 ft 446 kts 245°
2026-05-08 01:19 -18.91115 -42.92028 34111 ft 447 kts 245°
2026-05-08 01:20 -18.93113 -42.98249 34115 ft 447 kts 245°
2026-05-08 01:20 -18.95113 -43.04454 34125 ft 446 kts 245°
2026-05-08 01:21 -18.97092 -43.10622 34124 ft 446 kts 245°
2026-05-08 01:21 -18.99089 -43.16829 34121 ft 446 kts 245°
2026-05-08 01:22 -19.01082 -43.23031 34124 ft 446 kts 244°
2026-05-08 01:22 -19.03072 -43.29239 34126 ft 446 kts 244°
2026-05-08 01:23 -19.05044 -43.35399 34126 ft 445 kts 244°
2026-05-08 01:23 -19.07027 -43.41596 34120 ft 445 kts 244°
2026-05-08 01:24 -19.09013 -43.47797 34119 ft 445 kts 244°
2026-05-08 01:24 -19.10988 -43.54012 34115 ft 446 kts 244°
2026-05-08 01:25 -19.12950 -43.60183 34103 ft 446 kts 244°
2026-05-08 01:25 -19.14935 -43.66412 34101 ft 447 kts 244°
2026-05-08 01:26 -19.16921 -43.72650 34115 ft 448 kts 244°
2026-05-08 01:26 -19.18898 -43.78889 34125 ft 447 kts 245°
2026-05-08 01:27 -19.20852 -43.85073 34124 ft 446 kts 245°
2026-05-08 01:27 -19.22821 -43.91300 34125 ft 446 kts 244°
2026-05-08 01:28 -19.24791 -43.97519 34124 ft 446 kts 244°
2026-05-08 01:28 -19.26750 -44.03740 34125 ft 445 kts 245°
2026-05-08 01:29 -19.28706 -44.09952 34124 ft 445 kts 244°
2026-05-08 01:29 -19.30652 -44.16124 34123 ft 445 kts 245°
2026-05-08 01:30 -19.32601 -44.22341 34120 ft 445 kts 245°
2026-05-08 01:30 -19.34551 -44.28558 34114 ft 445 kts 245°
2026-05-08 01:31 -19.36503 -44.34781 34110 ft 445 kts 245°
2026-05-08 01:31 -19.38441 -44.40963 34107 ft 446 kts 245°
2026-05-08 01:32 -19.40389 -44.47182 34173 ft 443 kts 245°
2026-05-08 01:32 -19.42318 -44.53374 34213 ft 442 kts 245°
2026-05-08 01:33 -19.44239 -44.59545 34202 ft 440 kts 244°
2026-05-08 01:33 -19.46146 -44.65655 34201 ft 439 kts 244°
2026-05-08 01:34 -19.48057 -44.71804 34199 ft 439 kts 245°
2026-05-08 01:34 -19.49966 -44.77958 34198 ft 439 kts 245°
2026-05-08 01:35 -19.51873 -44.84103 34196 ft 438 kts 242°
2026-05-08 01:35 -19.53157 -44.86983 34198 ft 427 kts 232°
2026-05-08 01:35 -19.54903 -44.89484 34198 ft 419 kts 222°
2026-05-08 01:36 -19.59244 -44.93440 34192 ft 414 kts 215°
2026-05-08 01:36 -19.63713 -44.97296 34190 ft 414 kts 215°
2026-05-08 01:37 -19.68175 -45.01173 34195 ft 415 kts 215°
2026-05-08 01:37 -19.72652 -45.05049 34200 ft 415 kts 215°
2026-05-08 01:38 -19.77096 -45.08892 34199 ft 415 kts 215°
2026-05-08 01:38 -19.81574 -45.12762 34199 ft 415 kts 215°
2026-05-08 01:39 -19.86044 -45.16632 34197 ft 415 kts 215°
2026-05-08 01:39 -19.90515 -45.20511 34194 ft 415 kts 215°
2026-05-08 01:40 -19.94961 -45.24368 34192 ft 416 kts 215°
2026-05-08 01:40 -19.99440 -45.28258 34191 ft 416 kts 215°
2026-05-08 01:41 -20.03918 -45.32147 34189 ft 416 kts 215°
2026-05-08 01:41 -20.08395 -45.36039 34194 ft 416 kts 215°
2026-05-08 01:42 -20.12843 -45.39908 34190 ft 416 kts 216°
2026-05-08 01:42 -20.17328 -45.43824 34174 ft 417 kts 216°
2026-05-08 01:43 -20.21826 -45.47745 34172 ft 419 kts 216°
2026-05-08 01:43 -20.26340 -45.51676 34173 ft 420 kts 216°
2026-05-08 01:44 -20.30834 -45.55591 34180 ft 420 kts 216°
2026-05-08 01:44 -20.35359 -45.59540 34184 ft 421 kts 216°
2026-05-08 01:45 -20.39885 -45.63500 34185 ft 421 kts 216°
2026-05-08 01:45 -20.44404 -45.67468 34191 ft 421 kts 216°
2026-05-08 01:46 -20.48891 -45.71410 34196 ft 421 kts 216°
2026-05-08 01:46 -20.53414 -45.75385 34196 ft 421 kts 216°
2026-05-08 01:47 -20.57942 -45.79352 34197 ft 421 kts 216°
2026-05-08 01:47 -20.62472 -45.83322 34194 ft 421 kts 216°
2026-05-08 01:48 -20.69220 -45.89262 34189 ft 421 kts 216°
2026-05-08 01:48 -20.73742 -45.93240 34192 ft 421 kts 216°
2026-05-08 01:49 -20.78261 -45.97215 34191 ft 421 kts 216°
2026-05-08 01:49 -20.82781 -46.01186 34193 ft 421 kts 216°
2026-05-08 01:50 -20.87266 -46.05152 34190 ft 421 kts 216°
2026-05-08 01:50 -20.91784 -46.09141 34196 ft 422 kts 216°
2026-05-08 01:51 -20.96337 -46.13092 34197 ft 420 kts 212°
2026-05-08 01:51 -21.01572 -46.15711 34196 ft 416 kts 197°
2026-05-08 01:52 -21.07043 -46.17648 34075 ft 417 kts 197°
2026-05-08 01:52 -21.12478 -46.19576 34085 ft 401 kts 197°
2026-05-08 01:53 -21.17724 -46.21431 34083 ft 395 kts 197°
2026-05-08 01:53 -21.22951 -46.23213 34083 ft 394 kts 197°
2026-05-08 01:54 -21.28144 -46.24960 34085 ft 393 kts 197°
2026-05-08 01:54 -21.33366 -46.26726 34084 ft 393 kts 197°
2026-05-08 01:55 -21.38581 -46.28499 34080 ft 393 kts 197°
2026-05-08 01:55 -21.43794 -46.30282 34083 ft 394 kts 197°
2026-05-08 01:56 -21.49015 -46.32066 34081 ft 393 kts 197°
2026-05-08 01:56 -21.54195 -46.33834 34078 ft 393 kts 197°
2026-05-08 01:57 -21.59415 -46.35617 34078 ft 394 kts 197°
2026-05-08 01:57 -21.64641 -46.37403 34076 ft 394 kts 197°
2026-05-08 01:58 -21.67253 -46.38305 33704 ft 396 kts 197°
2026-05-08 01:58 -21.69829 -46.39230 33134 ft 395 kts 198°
2026-05-08 01:58 -21.72420 -46.40183 32603 ft 392 kts 198°
2026-05-08 01:58 -21.74989 -46.41139 32072 ft 389 kts 198°
2026-05-08 01:59 -21.77536 -46.42090 31554 ft 386 kts 198°
2026-05-08 01:59 -21.80067 -46.43028 31047 ft 383 kts 198°
2026-05-08 01:59 -21.82580 -46.43955 30552 ft 379 kts 198°
2026-05-08 01:59 -21.85064 -46.44872 30071 ft 375 kts 198°
2026-05-08 02:00 -21.87520 -46.45777 29603 ft 371 kts 198°
2026-05-08 02:00 -21.89918 -46.46659 29156 ft 367 kts 198°
2026-05-08 02:00 -21.92322 -46.47542 28709 ft 363 kts 198°
2026-05-08 02:00 -21.94700 -46.48417 28282 ft 359 kts 198°
2026-05-08 02:01 -21.97056 -46.49284 27852 ft 356 kts 198°
2026-05-08 02:01 -21.99385 -46.50141 27408 ft 352 kts 198°
2026-05-08 02:01 -22.01695 -46.50989 26979 ft 349 kts 198°
2026-05-08 02:01 -22.03988 -46.51833 26536 ft 347 kts 197°
2026-05-08 02:02 -22.06263 -46.52671 26097 ft 345 kts 198°
2026-05-08 02:02 -22.08498 -46.53497 25653 ft 343 kts 199°
2026-05-08 02:02 -22.10750 -46.54329 25203 ft 341 kts 199°
2026-05-08 02:02 -22.12990 -46.55157 24747 ft 340 kts 198°
2026-05-08 02:03 -22.15226 -46.55982 24283 ft 339 kts 198°
2026-05-08 02:03 -22.17450 -46.56799 23824 ft 337 kts 199°
2026-05-08 02:03 -22.18922 -46.57342 23523 ft 337 kts 199°
2026-05-08 02:03 -22.21879 -46.58437 22918 ft 336 kts 198°
2026-05-08 02:04 -22.23340 -46.58978 22628 ft 335 kts 198°
2026-05-08 02:04 -22.25543 -46.59794 22187 ft 334 kts 198°
2026-05-08 02:04 -22.28451 -46.60870 21618 ft 333 kts 198°
2026-05-08 02:04 -22.30636 -46.61676 21189 ft 332 kts 198°
2026-05-08 02:05 -22.32109 -46.62219 20902 ft 331 kts 198°
2026-05-08 02:05 -22.34988 -46.63284 20349 ft 330 kts 198°
2026-05-08 02:05 -22.36425 -46.63816 20070 ft 329 kts 198°
2026-05-08 02:05 -22.38590 -46.64621 19661 ft 328 kts 198°
2026-05-08 02:06 -22.40677 -46.65619 19252 ft 329 kts 210°
2026-05-08 02:06 -22.42534 -46.67099 18728 ft 337 kts 221°
2026-05-08 02:06 -22.44592 -46.69742 17499 ft 357 kts 231°
2026-05-08 02:06 -22.45614 -46.71196 17089 ft 360 kts 231°
2026-05-08 02:07 -22.47118 -46.73337 16752 ft 355 kts 231°
2026-05-08 02:07 -22.48610 -46.75457 16338 ft 353 kts 231°
2026-05-08 02:07 -22.50076 -46.77533 15914 ft 352 kts 231°
2026-05-08 02:07 -22.51560 -46.79630 15506 ft 350 kts 231°
2026-05-08 02:08 -22.53045 -46.81730 14783 ft 357 kts 231°
2026-05-08 02:08 -22.54583 -46.83907 13805 ft 370 kts 231°
2026-05-08 02:08 -22.56173 -46.86158 12814 ft 383 kts 231°
2026-05-08 02:08 -22.57810 -46.88479 11808 ft 393 kts 232°
2026-05-08 02:09 -22.59466 -46.90824 11310 ft 388 kts 232°
2026-05-08 02:09 -22.61074 -46.93105 11127 ft 374 kts 232°
2026-05-08 02:09 -22.62617 -46.95296 11068 ft 357 kts 232°
2026-05-08 02:09 -22.64067 -46.97357 11079 ft 340 kts 232°
2026-05-08 02:10 -22.65465 -46.99347 11081 ft 325 kts 232°
2026-05-08 02:10 -22.66799 -47.01250 11082 ft 310 kts 232°
2026-05-08 02:10 -22.68070 -47.03063 11081 ft 296 kts 232°
2026-05-08 02:10 -22.69322 -47.04845 10502 ft 304 kts 232°
2026-05-08 02:11 -22.70635 -47.06712 9680 ft 319 kts 232°
2026-05-08 02:11 -22.72009 -47.08669 8807 ft 333 kts 233°
2026-05-08 02:11 -22.73437 -47.10701 7916 ft 345 kts 233°
2026-05-08 02:11 -22.74891 -47.12770 7222 ft 350 kts 233°
2026-05-08 02:12 -22.76345 -47.14844 6935 ft 341 kts 233°
2026-05-08 02:12 -22.77755 -47.16859 6669 ft 331 kts 233°
2026-05-08 02:12 -22.79128 -47.18822 6419 ft 322 kts 233°
2026-05-08 02:12 -22.80466 -47.20730 6183 ft 313 kts 233°
2026-05-08 02:13 -22.81873 -47.22482 5936 ft 301 kts 220°
2026-05-08 02:13 -22.83466 -47.23832 5712 ft 282 kts 218°
2026-05-08 02:13 -22.84972 -47.25092 5487 ft 265 kts 218°
2026-05-08 02:13 -22.86383 -47.26272 5262 ft 256 kts 218°
2026-05-08 02:14 -22.87801 -47.27413 5038 ft 252 kts 210°
2026-05-08 02:14 -22.89457 -47.27827 4825 ft 244 kts 169°
2026-05-08 02:14 -22.90933 -47.27090 4592 ft 231 kts 130°
2026-05-08 02:14 -22.91918 -47.25753 4363 ft 225 kts 123°
2026-05-08 02:15 -22.92870 -47.24423 4146 ft 222 kts 124°
2026-05-08 02:15 -22.93800 -47.23133 4031 ft 214 kts 124°
2026-05-08 02:15 -22.94703 -47.21876 3807 ft 208 kts 124°
2026-05-08 02:15 -22.95573 -47.20665 3526 ft 198 kts 124°
2026-05-08 02:16 -22.96379 -47.19541 3271 ft 186 kts 124°
2026-05-08 02:16 -22.97150 -47.18466 3034 ft 175 kts 125°
2026-05-08 02:16 -22.97868 -47.17465 2834 ft 160 kts 125°
2026-05-08 02:16 -22.98530 -47.16540 2612 ft 152 kts 125°
2026-05-08 02:17 -22.99170 -47.15643 2432 ft 149 kts 125°
2026-05-08 02:17 -22.99805 -47.14759 2225 ft 147 kts 126°
2026-05-08 02:17 -23.00397 -47.13923 2161 ft 126 kts 127°
2026-05-08 02:17 -23.00826 -47.13321 2160 ft 76 kts 128°
2026-05-08 02:18 -23.01048 -47.13017 2164 ft 33 kts 128°
2026-05-08 02:18 -23.01176 -47.12886 2165 ft 17 kts 145°
2026-05-08 02:18 -23.01276 -47.12829 2165 ft 16 kts 156°
2026-05-08 02:18 -23.01362 -47.12803 2162 ft 11 kts 193°
2026-05-08 02:19 -23.01385 -47.12859 2163 ft 8 kts 287°
2026-05-08 02:19 -23.01358 -47.12905 2162 ft 7 kts 306°
2026-05-08 02:19 -23.01320 -47.12961 2167 ft 11 kts 308°
2026-05-08 02:19 -23.01264 -47.13036 2164 ft 15 kts 309°
2026-05-08 02:20 -23.01193 -47.13136 2169 ft 19 kts 308°
2026-05-08 02:20 -23.01106 -47.13256 2164 ft 21 kts 307°
2026-05-08 02:20 -23.01012 -47.13388 2166 ft 23 kts 308°
2026-05-08 02:20 -23.00919 -47.13517 2161 ft 22 kts 308°
2026-05-08 02:21 -23.00830 -47.13643 2162 ft 21 kts 308°
2026-05-08 02:21 -23.00736 -47.13771 2164 ft 22 kts 308°
2026-05-08 02:21 -23.00641 -47.13906 2164 ft 23 kts 308°
2026-05-08 02:21 -23.00540 -47.14046 2163 ft 24 kts 308°
2026-05-08 02:22 -23.00441 -47.14184 2167 ft 23 kts 308°
2026-05-08 02:22 -23.00347 -47.14316 2164 ft 21 kts 308°
2026-05-08 02:22 -23.00267 -47.14426 2159 ft 16 kts 308°
2026-05-08 02:22 -23.00203 -47.14517 2164 ft 11 kts 306°
2026-05-08 02:23 -23.00220 -47.14591 2168 ft 12 kts 222°
2026-05-08 02:23 -23.00283 -47.14645 2167 ft 11 kts 218°
2026-05-08 02:23 -23.00345 -47.14697 2166 ft 11 kts 217°
2026-05-08 02:23 -23.00400 -47.14744 2165 ft 9 kts 218°
2026-05-08 02:24 -23.00438 -47.14775 2164 ft 3 kts 218°
2026-05-08 02:24 -23.00448 -47.14784 2161 ft 2 kts 219°
2026-05-08 02:24 -23.00454 -47.14789 2161 ft 0 kts 218°
2026-05-08 02:24 -23.00454 -47.14790 2161 ft 0 kts 218°